Lid_Strength_Index
2 3 3 3 4 3 3 3 3 3 2 2 2 1 1 1 1 2 4 4 7 10 10 9 9 11 10 10 12 10 12 9 10 12 13 13 14 13 13 12 14 14 15 16 15 17 18 8 9 13 11 9 9 9
2 2 3 3 3 3 3 3 3 3 3 2 2 1 1 1 0 1 5 4 4 8 8 6 7 7 7 7 9 9 10 8 9 11 11 11 13 13 13 16 10 15 12 14 13 13 9 9 9 9 9 10 10 11
2 2 2 3 3 3 3 3 3 3 2 2 2 1 1 0 0 1 4 4 5 8 8 8 8 6 5 6 5 10 9 6 7 6 8 10 13 11 15 14 12 10 9 12 12 10 10 9 9 9 10 11 11 11
2 2 2 3 3 3 3 3 3 3 2 2 1 1 1 0 0 1 4 3 5 7 11 11 6 8 5 5 5 5 6 5 5 6 9 10 12 9 12 11 11 10 10 12 11 10 10 10 9 10 11 11 11 12
2 2 2 2 2 3 3 4 3 3 2 1 1 1 0 0 0 1 3 3 3 6 11 10 8 6 5 6 6 6 6 7 9 9 9 10 10 10 9 9 12 10 13 13 14 12 11 12 11 11 13 13 14 14
2 2 2 3 3 3 3 3 3 2 1 1 1 1 0 0 -0 3 8 3 2 3 8 13 9 8 6 6 7 7 7 7 6 7 9 9 7 9 11 13 11 10 10 11 12 10 11 11 11 12 13 14 15 16
2 2 2 3 3 3 3 2 2 2 2 1 1 0 0 0 2 6 8 5 2 3 8 11 12 9 6 7 8 7 5 6 6 7 8 8 9 8 11 13 12 11 11 11 11 10 12 12 13 12 13 14 14 16
2 3 3 3 3 3 2 2 2 2 1 1 0 0 0 0 2 4 3 1 1 5 6 12 12 11 4 9 9 5 7 6 7 7 7 8 8 9 13 13 13 13 12 13 13 11 11 12 12 14 13 14 16 17
3 3 3 3 3 3 2 2 2 1 1 1 0 -0 1 4 7 4 1 1 1 4 10 10 13 15 5 7 7 8 8 10 7 9 10 8 11 17 14 14 14 15 15 15 13 13 13 14 14 15 15 16 16 16
3 4 4 3 3 3 2 2 1 1 1 0 1 7 9 7 0 1 4 6 6 6 6 10 9 11 8 8 9 9 8 10 12 10 9 12 16 14 14 14 14 15 15 15 14 16 16 15 16 17 17 17 17 17
4 3 3 3 3 2 1 2 1 0 0 4 8 8 4 1 4 7 9 9 8 9 8 8 9 9 6 10 10 8 10 10 13 11 11 15 17 15 14 15 15 15 16 16 16 16 16 16 16 16 17 17 18 19
3 3 3 3 2 2 2 1 1 2 4 5 3 2 4 6 8 9 10 9 10 12 11 10 8 7 7 8 10 9 11 10 14 9 15 21 17 15 15 16 16 16 16 17 17 18 18 18 17 18 19 19 20 20
3 3 3 2 2 1 1 1 1 1 2 4 6 8 8 11 12 14 14 12 12 9 8 8 9 9 8 8 9 10 12 13 10 16 21 19 16 15 16 16 17 17 17 18 19 19 20 21 21 21 22 22 23 24
3 3 2 2 1 1 1 2 2 3 5 9 11 19 15 20 19 18 12 12 11 10 8 9 10 9 9 10 11 13 12 10 16 23 24 19 17 16 16 17 18 20 20 21 23 23 23 23 24 24 24 26 25 25
3 3 1 2 1 2 3 3 4 7 9 12 12 18 20 16 15 15 14 11 11 9 9 9 10 11 14 14 16 16 18 21 20 23 24 18 17 17 18 18 20 21 23 24 25 25 25 25 24 24 24 26 25 25
3 3 3 2 3 2 3 4 6 8 11 13 15 17 15 17 18 15 14 13 11 10 10 12 15 18 17 19 20 22 19 23 24 22 19 18 21 20 20 20 22 23 24 25 25 24 24 25 25 24 24 25 26 26
4 7 3 3 3 3 4 7 9 11 13 14 17 15 19 18 20 17 15 14 11 11 19 15 20 19 17 21 23 21 26 26 23 20 21 20 19 20 20 20 20 20 22 22 22 22 23 24 23 22 24 23 22 23
5 3 3 3 4 5 7 9 11 12 15 15 17 18 18 18 19 17 15 13 12 14 14 17 15 20 27 24 25 24 22 19 18 20 20 20 19 19 19 21 21 21 21 22 21 22 22 23 22 23 22 22 22 22
4 4 3 3 5 8 11 11 11 16 15 15 15 15 16 17 15 15 14 13 13 13 14 17 21 23 23 23 26 25 23 21 20 20 19 20 20 19 21 21 21 21 20 21 20 20 20 19 20 19 19 20 22 22
3 3 3 3 5 9 11 12 11 14 16 16 15 16 16 17 16 16 16 15 15 16 19 21 21 21 20 21 21 21 23 20 20 22 23 22 22 20 20 18 18 18 18 18 18 17 17 18 17 18 18 18 20 22
5 6 5 7 9 10 12 12 14 14 14 16 15 16 18 16 18 19 19 17 20 21 22 21 22 21 21 20 23 21 21 19 23 20 22 21 20 18 18 17 16 16 17 18 18 18 17 18 17 17 20 21 23 23
7 6 9 9 11 11 12 12 13 13 14 14 14 14 19 23 25 22 18 21 22 23 22 22 22 22 20 21 21 21 22 19 19 19 19 19 21 19 19 19 17 19 18 18 17 18 17 17 18 19 23 26 23 23
7 9 11 12 15 16 15 11 15 13 17 15 15 18 22 24 20 17 24 20 21 20 22 20 21 21 20 20 18 18 17 17 18 18 18 19 19 19 18 17 17 18 18 17 16 16 17 17 19 22 22 22 22 25
10 14 17 17 16 19 18 18 14 15 17 18 20 22 22 22 19 24 25 25 22 18 20 21 19 20 19 19 21 22 21 19 19 20 20 19 20 19 17 17 16 16 15 16 17 20 20 22 23 22 26 28 30 30
16 19 19 22 19 21 24 25 22 20 25 23 23 24 24 20 26 28 26 25 22 23 21 20 19 20 22 25 23 22 19 18 19 20 20 19 21 20 19 18 18 17 17 23 25 26 27 25 22 24 25 28 23 25
23 23 21 24 23 21 22 25 26 26 26 27 26 24 25 28 30 30 23 24 26 24 23 23 23 22 21 20 21 21 21 19 18 20 21 19 20 23 24 23 22 21 20 24 26 28 28 29 27 23 23 22 22 24
25 25 19 17 17 18 23 23 20 24 28 27 26 30 29 32 31 25 23 22 21 23 19 18 17 19 20 21 20 21 21 20 20 20 20 21 20 20 20 22 21 21 21 25 26 26 26 29 29 29 28 30 28 26
22 21 24 26 26 22 29 30 29 28 28 22 24 30 28 27 26 23 22 23 21 18 19 19 19 19 20 21 22 23 24 24 22 23 23 22 23 25 26 26 25 21 28 29 29 24 27 27 29 30 30 28 29 33
25 24 23 29 28 27 26 28 27 23 21 25 30 30 27 22 24 23 22 22 19 19 22 23 27 26 26 26 28 28 26 24 26 29 30 31 32 26 29 30 29 30 31 27 21 24 24 25 26 25 27 26 27 32
25 22 27 32 31 29 28 26 27 27 23 24 22 21 22 24 23 24 22 23 22 24 27 24 27 27 28 27 30 28 32 34 30 26 29 30 28 29 31 31 30 31 31 30 29 27 22 27 25 29 29 29 29 30
23 27 29 28 29 28 27 29 32 32 32 31 32 28 26 23 20 23 25 29 26 26 26 29 33 35 30 32 33 32 30 32 36 34 33 33 32 32 32 32 33 34 32 31 31 32 32 33 34 31 28 28 29 29
31 33 30 30 28 27 27 32 34 32 33 30 30 31 28 28 28 25 27 28 26 28 30 27 28 27 31 33 34 34 30 29 33 32 31 33 34 36 35 33 35 34 32 32 33 33 33 33 34 32 32 31 33 34
34 35 34 31 30 29 29 29 28 28 30 29 29 30 31 28 27 25 26 26 23 21 23 25 31 31 28 30 30 33 32 34 34 25 28 29 32 32 36 37 36 34 31 32 34 34 32 32 34 34 35 35 35 36